| time (UTC) | temp F | wind direction | speed MPH | gust MPH | rain 1hr in | rain 24hr in | rain mn in | humidity % | barometer mb |
| 20260507080008 | 55 | 93 | 3.0 | 9.0 | 0.00 | 0.00 | 0.00 | 13 | 1015.5 |
| 20260507074947 | 55 | 78 | 2.0 | 7.0 | 0.00 | 0.00 | 0.00 | 11 | 1015.4 |
| 20260507072804 | 54 | 62 | 3.0 | 8.0 | 0.00 | 0.00 | 0.00 | 1 | 1015.3 |
| 20260507071758 | 54 | 65 | 2.0 | 8.0 | 0.00 | 0.00 | 0.00 | 1 | 1015.3 |
| 20260507070804 | 53 | 63 | 2.0 | 6.0 | 0.00 | 0.00 | 0.00 | 1 | 1015.2 |
| 20260507065822 | 53 | 104 | 2.0 | 6.0 | 0.00 | 0.00 | 0.00 | 1 | 1015.2 |
| 20260507064840 | 53 | 57 | 1.0 | 6.0 | 0.00 | 0.00 | 0.00 | 1 | 1015.2 |
| 20260507063836 | 52 | 74 | 1.0 | 4.0 | 0.00 | 0.00 | 0.00 | 1 | 1015.1 |
| 20260507062845 | 52 | 70 | 0.0 | 0.0 | 0.00 | 0.00 | 0.00 | 1 | 1015.1 |
| 20260507061831 | 52 | 70 | 0.0 | 0.0 | 0.00 | 0.00 | 0.00 | 1 | 1015.0 |
| 20260507060836 | 51 | 70 | 0.0 | 0.0 | 0.00 | 0.00 | 0.00 | 1 | 1015.0 |
| 20260507054711 | 51 | 69 | 0.0 | 0.0 | 0.00 | 0.00 | 0.00 | 1 | 1014.8 |
| 20260507053647 | 50 | 69 | 0.0 | 0.0 | 0.00 | 0.00 | 0.00 | 1 | 1014.7 |
| 20260507052631 | 50 | 69 | 0.0 | 0.0 | 0.00 | 0.00 | 0.00 | 1 | 1014.7 |
| 20260507051636 | 50 | 69 | 0.0 | 0.0 | 0.00 | 0.00 | 0.00 | 1 | 1014.7 |
| 20260507050606 | 50 | 69 | 0.0 | 0.0 | 0.00 | 0.00 | 0.00 | 1 | 1014.7 |
| 20260507045543 | 50 | 69 | 0.0 | 0.0 | 0.00 | 0.00 | 0.00 | 1 | 1014.6 |
| 20260507044541 | 50 | 69 | 0.0 | 0.0 | 0.00 | 0.00 | 0.00 | 1 | 1014.5 |
| 20260507043529 | 50 | 69 | 0.0 | 0.0 | 0.00 | 0.00 | 0.00 | 1 | 1014.3 |
| 20260507041423 | 50 | 67 | 0.0 | 0.0 | 0.00 | 0.00 | 0.00 | 1 | 1014.3 |
| 20260507035212 | 50 | 66 | 0.0 | 0.0 | 0.00 | 0.00 | 0.00 | 1 | 1014.3 |
| 20260507034233 | 50 | 66 | 0.0 | 0.0 | 0.00 | 0.00 | 0.00 | 1 | 1014.2 |
| 20260507033257 | 50 | 66 | 0.0 | 0.0 | 0.00 | 0.00 | 0.00 | 1 | 1014.2 |
| 20260507032223 | 50 | 66 | 0.0 | 0.0 | 0.00 | 0.00 | 0.00 | 1 | 1014.2 |
| 20260507030122 | 50 | 66 | 0.0 | 0.0 | 0.00 | 0.00 | 0.00 | 1 | 1014.2 |
| 20260507025132 | 50 | 66 | 0.0 | 0.0 | 0.00 | 0.00 | 0.00 | 1 | 1014.1 |
| 20260507024153 | 50 | 66 | 0.0 | 0.0 | 0.00 | 0.00 | 0.00 | 1 | 1014.0 |
| 20260507023202 | 50 | 64 | 0.0 | 1.0 | 0.00 | 0.00 | 0.00 | 1 | 1014.0 |
| 20260507021014 | 51 | 64 | 0.0 | 0.0 | 0.00 | 0.00 | 0.00 | 1 | 1014.0 |
| 20260507015943 | 51 | 64 | 0.0 | 0.0 | 0.00 | 0.00 | 0.00 | 1 | 1014.0 |
| 20260507013745 | 51 | 64 | 1.0 | 4.0 | 0.00 | 0.00 | 0.00 | 1 | 1014.0 |
| 20260507012746 | 51 | 61 | 1.0 | 2.0 | 0.00 | 0.00 | 0.00 | 1 | 1014.0 |
| 20260507011738 | 51 | 59 | 1.0 | 3.0 | 0.00 | 0.00 | 0.00 | 1 | 1014.0 |
| 20260507005635 | 51 | 48 | 1.0 | 5.0 | 0.00 | 0.00 | 0.00 | 1 | 1014.0 |
| 20260507004635 | 51 | 40 | 2.0 | 7.0 | 0.00 | 0.00 | 0.00 | 1 | 1013.9 |
| 20260507002540 | 51 | 52 | 2.0 | 6.0 | 0.00 | 0.00 | 0.00 | 1 | 1013.8 |
| 20260507001524 | 51 | 65 | 2.0 | 5.0 | 0.00 | 0.00 | 0.00 | 1 | 1013.9 |
| 20260507000527 | 51 | 52 | 2.0 | 7.0 | 0.00 | 0.00 | 0.00 | 1 | 1013.9 |
| 20260506235549 | 51 | 36 | 2.0 | 7.0 | 0.00 | 0.00 | 0.00 | 1 | 1014.0 |
| 20260506234541 | 51 | 72 | 1.0 | 5.0 | 0.00 | 0.00 | 0.00 | 1 | 1014.0 |
| 20260506233539 | 51 | 61 | 1.0 | 4.0 | 0.00 | 0.00 | 0.00 | 1 | 1013.9 |
| 20260506232553 | 51 | 65 | 1.0 | 7.0 | 0.00 | 0.00 | 0.00 | 1 | 1013.9 |
| 20260506231555 | 51 | 73 | 2.0 | 7.0 | 0.00 | 0.00 | 0.00 | 1 | 1013.8 |
| 20260506230556 | 52 | 72 | 1.0 | 6.0 | 0.00 | 0.00 | 0.00 | 1 | 1013.9 |
| 20260506225614 | 51 | 77 | 1.0 | 6.0 | 0.00 | 0.00 | 0.00 | 1 | 1013.9 |
| 20260506224620 | 51 | 76 | 1.0 | 6.0 | 0.00 | 0.00 | 0.00 | 1 | 1013.8 |
| 20260506223551 | 51 | 50 | 2.0 | 4.0 | 0.00 | 0.00 | 0.00 | 1 | 1013.8 |
| 20260506222524 | 52 | 73 | 1.0 | 6.0 | 0.00 | 0.00 | 0.00 | 1 | 1013.7 |
| 20260506215212 | 52 | 76 | 2.0 | 8.0 | 0.00 | 0.00 | 0.00 | 1 | 1013.6 |
| 20260506214223 | 52 | 70 | 3.0 | 8.0 | 0.00 | 0.00 | 0.00 | 1 | 1013.6 |
| 20260506213148 | 52 | 73 | 2.0 | 8.0 | 0.00 | 0.00 | 0.00 | 1 | 1013.5 |
| 20260506212208 | 52 | 69 | 3.0 | 9.0 | 0.00 | 0.00 | 0.00 | 1 | 1013.5 |
| 20260506211228 | 52 | 69 | 3.0 | 11.0 | 0.00 | 0.00 | 0.00 | 1 | 1013.5 |
| 20260506210159 | 52 | 36 | 4.0 | 11.0 | 0.00 | 0.00 | 0.00 | 1 | 1013.4 |
| 20260506205209 | 52 | 49 | 4.0 | 10.0 | 0.00 | 0.00 | 0.00 | 1 | 1013.4 |
| 20260506204139 | 52 | 71 | 3.0 | 9.0 | 0.00 | 0.00 | 0.00 | 1 | 1013.4 |
| 20260506203110 | 52 | 63 | 3.0 | 8.0 | 0.00 | 0.00 | 0.00 | 1 | 1013.3 |
| 20260506202043 | 52 | 67 | 2.0 | 9.0 | 0.00 | 0.00 | 0.00 | 1 | 1013.2 |
| 20260506201045 | 52 | 59 | 3.0 | 9.0 | 0.00 | 0.00 | 0.00 | 1 | 1013.2 |
| 20260506200030 | 52 | 33 | 4.0 | 10.0 | 0.00 | 0.00 | 0.00 | 1 | 1013.1 |
| 20260506195016 | 52 | 42 | 3.0 | 10.0 | 0.00 | 0.00 | 0.00 | 1 | 1013.0 |
| 20260506194012 | 53 | 58 | 3.0 | 9.0 | 0.00 | 0.00 | 0.00 | 1 | 1012.9 |
| 20260506193011 | 53 | 75 | 4.0 | 10.0 | 0.00 | 0.00 | 0.00 | 1 | 1012.7 |
| 20260506191942 | 53 | 55 | 4.0 | 10.0 | 0.00 | 0.00 | 0.00 | 1 | 1012.6 |
| 20260506190926 | 53 | 55 | 2.0 | 8.0 | 0.00 | 0.00 | 0.00 | 1 | 1012.5 |
| 20260506184852 | 53 | 58 | 3.0 | 6.0 | 0.00 | 0.00 | 0.00 | 1 | 1012.3 |
| 20260506183844 | 53 | 55 | 2.0 | 7.0 | 0.00 | 0.00 | 0.00 | 1 | 1012.3 |
| 20260506182846 | 53 | 69 | 2.0 | 8.0 | 0.00 | 0.00 | 0.00 | 1 | 1012.3 |
| 20260506181846 | 53 | 59 | 2.0 | 8.0 | 0.00 | 0.00 | 0.00 | 1 | 1012.2 |
| 20260506175726 | 54 | 38 | 3.0 | 8.0 | 0.00 | 0.00 | 0.00 | 1 | 1012.0 |
| 20260506174705 | 54 | 30 | 3.0 | 10.0 | 0.00 | 0.00 | 0.00 | 1 | 1011.9 |
| 20260506173717 | 54 | 73 | 3.0 | 10.0 | 0.00 | 0.00 | 0.00 | 1 | 1011.8 |
| 20260506172719 | 54 | 48 | 2.0 | 9.0 | 0.00 | 0.00 | 0.00 | 1 | 1011.8 |
| 20260506171723 | 54 | 71 | 3.0 | 9.0 | 0.00 | 0.00 | 0.00 | 1 | 1011.8 |
| 20260506165543 | 54 | 76 | 3.0 | 10.0 | 0.00 | 0.00 | 0.00 | 1 | 1011.8 |
| 20260506164604 | 54 | 65 | 4.0 | 10.0 | 0.00 | 0.00 | 0.00 | 1 | 1011.8 |
| 20260506163534 | 54 | 51 | 3.0 | 7.0 | 0.00 | 0.00 | 0.00 | 1 | 1011.8 |
| 20260506162547 | 54 | 44 | 2.0 | 7.0 | 0.00 | 0.00 | 0.00 | 1 | 1011.8 |
| 20260506161608 | 54 | 46 | 3.0 | 7.0 | 0.00 | 0.00 | 0.00 | 1 | 1011.8 |
| 20260506160630 | 54 | 38 | 3.0 | 8.0 | 0.00 | 0.00 | 0.00 | 1 | 1011.7 |
| 20260506155609 | 54 | 51 | 3.0 | 8.0 | 0.00 | 0.00 | 0.00 | 1 | 1011.8 |
| 20260506154552 | 54 | 53 | 3.0 | 8.0 | 0.00 | 0.00 | 0.00 | 1 | 1011.7 |
| 20260506153519 | 54 | 35 | 4.0 | 8.0 | 0.00 | 0.00 | 0.00 | 1 | 1011.8 |
| 20260506152538 | 54 | 34 | 4.0 | 8.0 | 0.00 | 0.00 | 0.00 | 1 | 1011.7 |
| 20260506151511 | 53 | 53 | 3.0 | 7.0 | 0.00 | 0.00 | 0.00 | 1 | 1011.6 |
| 20260506150506 | 53 | 42 | 4.0 | 9.0 | 0.00 | 0.00 | 0.00 | 1 | 1011.5 |
| 20260506144307 | 54 | 44 | 4.0 | 10.0 | 0.00 | 0.00 | 0.00 | 1 | 1011.6 |
| 20260506143320 | 54 | 18 | 5.0 | 11.0 | 0.00 | 0.00 | 0.00 | 1 | 1011.6 |
| 20260506141111 | 55 | 62 | 6.0 | 14.0 | 0.00 | 0.00 | 0.00 | 1 | 1011.5 |
| 20260506140126 | 56 | 58 | 6.0 | 14.0 | 0.00 | 0.00 | 0.00 | 1 | 1011.5 |
| 20260506135120 | 57 | 26 | 4.0 | 10.0 | 0.00 | 0.00 | 0.00 | 8 | 1011.4 |
| 20260506134133 | 58 | 78 | 3.0 | 10.0 | 0.00 | 0.00 | 0.00 | 28 | 1011.5 |
| 20260506133124 | 58 | 55 | 2.0 | 10.0 | 0.00 | 0.00 | 0.00 | 39 | 1011.4 |
| 20260506132117 | 60 | 50 | 4.0 | 10.0 | 0.00 | 0.00 | 0.00 | 42 | 1011.4 |
| 20260506131118 | 60 | 31 | 4.0 | 11.0 | 0.00 | 0.00 | 0.00 | 46 | 1011.4 |
| 20260506124935 | 60 | 71 | 5.0 | 10.0 | 0.00 | 0.00 | 0.00 | 46 | 1011.4 |
| 20260506123901 | 60 | 16 | 5.0 | 10.0 | 0.00 | 0.00 | 0.00 | 46 | 1011.4 |
| 20260506122910 | 60 | 348 | 4.0 | 9.0 | 0.00 | 0.00 | 0.00 | 44 | 1011.3 |
| 20260506121933 | 59 | 16 | 4.0 | 9.0 | 0.00 | 0.00 | 0.00 | 45 | 1011.4 |
| 20260506120915 | 58 | 337 | 5.0 | 11.0 | 0.00 | 0.00 | 0.00 | 38 | 1011.3 |
| 20260506115859 | 58 | 10 | 4.0 | 12.0 | 0.00 | 0.00 | 0.00 | 37 | 1011.3 |
| 20260506114907 | 57 | 28 | 4.0 | 12.0 | 0.00 | 0.00 | 0.00 | 34 | 1011.4 |
| 20260506113924 | 57 | 20 | 5.0 | 11.0 | 0.00 | 0.00 | 0.00 | 32 | 1011.4 |
| 20260506111832 | 57 | 14 | 5.0 | 11.0 | 0.00 | 0.00 | 0.00 | 32 | 1011.4 |
| 20260506110834 | 57 | 9 | 5.0 | 11.0 | 0.00 | 0.00 | 0.00 | 37 | 1011.3 |
| 20260506105819 | 58 | 12 | 6.0 | 14.0 | 0.00 | 0.00 | 0.00 | 38 | 1011.3 |
| 20260506104815 | 58 | 9 | 7.0 | 14.0 | 0.00 | 0.00 | 0.00 | 36 | 1011.3 |
| 20260506103819 | 59 | 21 | 6.0 | 13.0 | 0.00 | 0.00 | 0.00 | 34 | 1011.4 |
| 20260506101641 | 57 | 5 | 7.0 | 14.0 | 0.00 | 0.00 | 0.00 | 29 | 1011.3 |
| 20260506100642 | 56 | 17 | 6.0 | 13.0 | 0.00 | 0.00 | 0.00 | 25 | 1011.4 |
| 20260506095618 | 55 | 341 | 6.0 | 12.0 | 0.00 | 0.00 | 0.00 | 17 | 1011.3 |
| 20260506093413 | 55 | 30 | 8.0 | 14.0 | 0.00 | 0.00 | 0.00 | 11 | 1011.3 |
| 20260506092349 | 55 | 34 | 7.0 | 14.0 | 0.00 | 0.00 | 0.00 | 6 | 1011.3 |
| 20260506091330 | 55 | 14 | 6.0 | 14.0 | 0.00 | 0.00 | 0.00 | 1 | 1011.2 |
| 20260506090352 | 54 | 340 | 6.0 | 13.0 | 0.00 | 0.00 | 0.00 | 1 | 1011.2 |
| 20260506085327 | 53 | 348 | 6.0 | 14.0 | 0.00 | 0.00 | 0.00 | 1 | 1011.1 |
| 20260506080924 | 52 | 0 | 6.0 | 15.0 | 0.00 | 0.00 | 0.00 | 1 | 1011.0 |